Location: Saint-Restitut
(44.3351°N, 4.7915°E)
Time: 13:17:24
(UTC+00:00)

Cosmos 1140 Rocket - Pass Details

Date: 03 February 2023
Orbit: 744 x 766 km, 74.1° (Epoch: 20 March)

Event Time Altitude Azimuth Distance (km) Brightness Sun altitude
Rises 17:21:11 0° 207° (SSW) 3,198 7.5 -5.6°
Reaches altitude 10° 17:23:34 10° 210° (SSW) 2,274 6.7 -6.0°
Maximum altitude 17:28:41 66° 293° (WNW) 821 3.9 -6.9°
Drops below altitude 10° 17:33:49 10° 16° (NNE) 2,276 5.7 -7.8°
Sets 17:36:13 0° 19° (NNE) 3,201 6.4 -8.2°
